TimeEDT,TemperatureF,Dew PointF,Humidity,Sea Level PressureIn,VisibilityMPH,Wind Direction,Wind SpeedMPH,Gust SpeedMPH,PrecipitationIn,Events,Conditions,WindDirDegrees,DateUTC
12:15 AM,75.2,73.4,94,30.01,10.0,South,9.2,-,N/A,,Mostly Cloudy,170,2012-10-03 04:15:00
12:35 AM,75.2,73.4,94,30.01,10.0,South,8.1,-,N/A,,Mostly Cloudy,180,2012-10-03 04:35:00
12:55 AM,75.2,73.4,94,30.02,10.0,South,9.2,-,N/A,,Overcast,190,2012-10-03 04:55:00
1:15 AM,75.2,73.4,94,30.02,10.0,South,10.4,-,N/A,,Overcast,190,2012-10-03 05:15:00
1:35 AM,77.0,73.4,89,30.03,10.0,South,10.4,17.3,N/A,,Overcast,190,2012-10-03 05:35:00
1:55 AM,77.0,73.4,89,30.03,10.0,South,8.1,-,N/A,,Mostly Cloudy,190,2012-10-03 05:55:00
2:15 AM,77.0,73.4,89,30.03,10.0,South,8.1,-,N/A,,Mostly Cloudy,190,2012-10-03 06:15:00
2:35 AM,77.0,73.4,89,30.03,10.0,South,8.1,-,N/A,,Overcast,190,2012-10-03 06:35:00
2:55 AM,77.0,73.4,89,30.03,10.0,SSW,8.1,-,N/A,,Mostly Cloudy,200,2012-10-03 06:55:00
3:15 AM,77.0,73.4,89,30.03,10.0,SSW,5.8,-,N/A,,Mostly Cloudy,200,2012-10-03 07:15:00
3:35 AM,77.0,73.4,89,30.03,10.0,South,3.5,-,N/A,,Mostly Cloudy,190,2012-10-03 07:35:00
3:55 AM,75.2,73.4,94,30.03,10.0,South,4.6,-,N/A,,Mostly Cloudy,180,2012-10-03 07:55:00
4:15 AM,75.2,73.4,94,30.04,7.0,Calm,Calm,-,N/A,Rain,Light Rain,0,2012-10-03 08:15:00
4:35 AM,77.0,73.4,89,30.04,10.0,South,5.8,-,N/A,,Overcast,190,2012-10-03 08:35:00
4:55 AM,75.2,73.4,94,30.04,7.0,SSW,3.5,-,N/A,,Mostly Cloudy,200,2012-10-03 08:55:00
5:15 AM,75.2,73.4,94,30.05,7.0,SSW,4.6,-,N/A,,Mostly Cloudy,200,2012-10-03 09:15:00
5:35 AM,75.2,73.4,94,30.06,7.0,South,4.6,-,N/A,,Clear,190,2012-10-03 09:35:00
5:55 AM,75.2,73.4,94,30.06,7.0,SSW,4.6,-,N/A,,Scattered Clouds,200,2012-10-03 09:55:00
6:15 AM,75.2,73.4,94,30.06,7.0,SSW,5.8,-,N/A,,Drizzle,200,2012-10-03 10:15:00
6:35 AM,75.2,73.4,94,30.07,7.0,SSW,4.6,-,N/A,,Light Drizzle,210,2012-10-03 10:35:00
6:55 AM,75.2,73.4,94,30.07,7.0,SSW,3.5,-,N/A,,Light Drizzle,200,2012-10-03 10:55:00
6:56 AM,75.2,75.2,100,30.07,7.0,SSW,4.6,-,N/A,,Light Drizzle,200,2012-10-03 10:56:00
7:56 AM,77.0,75.2,94,30.09,7.0,SSW,4.6,-,N/A,,Scattered Clouds,200,2012-10-03 11:56:00
8:56 AM,77.0,73.4,89,30.11,7.0,SSW,5.8,-,N/A,,Mostly Cloudy,200,2012-10-03 12:56:00
9:56 AM,78.8,73.4,83,30.12,7.0,SW,5.8,-,N/A,,Scattered Clouds,220,2012-10-03 13:56:00
10:56 AM,78.8,73.4,83,30.13,7.0,SSW,5.8,-,N/A,,Scattered Clouds,200,2012-10-03 14:56:00
11:56 AM,80.6,75.2,84,30.13,7.0,SSE,6.9,-,N/A,,Mostly Cloudy,160,2012-10-03 15:56:00
12:56 PM,82.4,73.4,74,30.13,7.0,SSE,8.1,-,N/A,,Mostly Cloudy,160,2012-10-03 16:56:00
1:56 PM,82.4,73.4,74,30.10,7.0,South,4.6,-,N/A,,Mostly Cloudy,190,2012-10-03 17:56:00
2:56 PM,80.6,75.2,84,30.10,7.0,South,6.9,-,N/A,Rain,Light Rain,180,2012-10-03 18:56:00
3:56 PM,82.4,77.0,84,30.09,10.0,SSE,5.8,-,N/A,,Clear,160,2012-10-03 19:56:00
4:56 PM,82.4,75.2,79,30.10,10.0,SSE,6.9,-,N/A,,Clear,160,2012-10-03 20:56:00
5:56 PM,80.6,75.2,84,30.11,10.0,SSE,6.9,-,N/A,,Clear,150,2012-10-03 21:56:00
6:56 PM,78.8,73.4,83,30.12,10.0,SSE,6.9,-,N/A,,Clear,160,2012-10-03 22:56:00
7:56 PM,77.0,73.4,89,30.14,10.0,South,4.6,-,N/A,,Clear,180,2012-10-03 23:56:00
8:56 PM,75.2,73.4,94,30.14,10.0,South,4.6,-,N/A,,Clear,190,2012-10-04 00:56:00
9:15 PM,73.4,73.4,100,30.15,10.0,South,5.8,-,N/A,,Clear,190,2012-10-04 01:15:00
9:35 PM,73.4,73.4,100,30.16,10.0,South,5.8,-,N/A,,Clear,190,2012-10-04 01:35:00
9:55 PM,73.4,73.4,100,30.16,10.0,South,3.5,-,N/A,,Clear,190,2012-10-04 01:55:00
10:15 PM,73.4,71.6,94,30.17,7.0,South,5.8,-,N/A,,Clear,190,2012-10-04 02:15:00
10:35 PM,73.4,73.4,100,30.17,7.0,SSW,4.6,-,N/A,,Clear,200,2012-10-04 02:35:00
10:55 PM,73.4,73.4,100,30.18,7.0,SSW,6.9,-,N/A,,Clear,200,2012-10-04 02:55:00
11:15 PM,73.4,71.6,94,30.18,7.0,SSW,6.9,-,N/A,,Clear,200,2012-10-04 03:15:00
11:35 PM,73.4,71.6,94,30.17,7.0,SSW,6.9,-,N/A,,Clear,200,2012-10-04 03:35:00
11:55 PM,73.4,71.6,94,30.18,7.0,SSW,8.1,-,N/A,,Clear,210,2012-10-04 03:55:00